Other Public Products
Issued by NWS Charleston, SC

Current Version | Previous Version | Graphics & Text | Print | Product List | Glossary On
Versions: 1 2 3 4 5 6 7 8 9 10 11 12 13 14 15 16 17 18 19 20 21 22 23 24 25 26 27 28 29 30 31 32 33 34 35 36 37 38 39 40 41 42 43 44 45 46 47 48 49 50
000
FPUS82 KCHS 182027
OPUCHS

TEST...KCHS/KSAV Gateway Observations...TEST
National Weather Service Charleston SC
400 PM EDT FRI AUG 18 2017

NOTE: "fair" indicates few or no clouds below 12,000 feet with no
significant weather and/or obstructions to visibility.

SCZ050-WAZ558-NCZ071-TXZ119-213-PAZ071-DCZ001-FLZ074-172-MI076-
NYZ176-178-MAZ016-IL014-TNZ027-NJZ106-GAZ044-MD014-182100-

...Gateway Observations for Charleston International...

CITY           SKY/WX    TMP DP  RH WIND       PRES   REMARKS
Chas Airport   MOSUNNY   94  78  60 S9        29.91F HX 110
Seattle        MOSUNNY   68  54  60 W10       30.19S
Charlotte      MOSUNNY   93  74  53 S9        29.89F HX 103
Dallas DFW     LGT RAIN  85  72  65 NW13      30.02F HX  91
Dallas Love    PTSUNNY   89  72  56 NW12      30.02S HX  96
Philladelphia  PTSUNNY   89  77  67 S9        29.76F HX 101
Wash National  PTSUNNY   90  80  72 S13       29.76F HX 107
Baltimore      PTSUNNY   90  77  65 S8        29.74F HX 103
Miami          MOSUNNY   93  73  52 E13       29.98F HX 102
Detroit        PTSUNNY   80  60  50 W17G26    29.80S
Newark         PTSUNNY   82  76  81 S7        29.77F
Laguardia      CLOUDY    82  77  84 S7        29.78F HX  90
J F K          CLOUDY    79  78  97 S17       29.81F
Boston Logan   LGT RAIN  77  70  79 S14       29.84S
Ft. Lauderdale MOSUNNY   90  77  65 E14       29.97F HX 103
Chicago O`Hare MOSUNNY   81  60  48 W13       29.85F
Chicago Midway MOSUNNY   82  60  47 SW12G18   29.85F
Houston Bush   MOSUNNY   97  72  44 S3        29.99F HX 105
Houston Hobby  MOSUNNY   97  70  41 CALM      29.98F HX 103
Nashville      PTSUNNY   88  61  40 NW9G17    29.99S
Atlanta        MOSUNNY   89  68  49 W12       29.97F HX  93

$$

GAZ044-118-TXZ119-213-NCZ071-DCZ001-MDZ014-506-PAZ021-071-NJZ106-
NYZ176-178-MAZ106-OHZ011-021-055-MIZ076-KYZ091-ILZ014-INZ047-
MNZ060-ONZ431-182100-

...Gateway Observations for Savannah International...

CITY           SKY/WX    TMP DP  RH WIND       PRES   REMARKS
Savannah Arpt  PTSUNNY   95  71  45 W5        29.93F HX 102
Atlanta        MOSUNNY   89  68  49 W12       29.97F HX  93
Charlotte      MOSUNNY   93  74  53 S9        29.89F HX 103
Dallas DFW     LGT RAIN  85  72  65 NW13      30.02F HX  91
Houston Bush   MOSUNNY   97  72  44 S3        29.99F HX 105
Wash National  PTSUNNY   90  80  72 S13       29.76F HX 107
Wash Dulles    PTSUNNY   92  74  55 SW14      29.76F HX 101
Baltimore      PTSUNNY   90  77  65 S8        29.74F HX 103
Philadelphia   PTSUNNY   89  77  67 S9        29.76F HX 101
Newark         PTSUNNY   82  76  81 S7        29.77F
Laguardia      CLOUDY    82  77  84 S7        29.78F HX  90
J F K          CLOUDY    79  78  97 S17       29.81F
Boston         LGT RAIN  77  70  79 S14       29.84S
Pittsburg      MOSUNNY   84  65  52 W14G21    29.83S
Akron          MOSUNNY   85  61  44 W18       29.84S
Cleveland      PTSUNNY   83  64  52 W16       29.83S
Cincinnati     PTSUNNY   83  65  54 NW15      29.92S
Columbus       MOSUNNY   83  65  55 W14       29.87S
Detroit        PTSUNNY   80  60  50 W17G26    29.80S
Chicago O`Hare MOSUNNY   81  60  48 W13       29.85F
Minneapolis    CLOUDY    68  62  81 SW7       29.90F
Indianapolis   MOSUNNY   85  62  46 W16G24    29.91F
Toronto Canada PTSUNNY   77  63  61 SW21G29   29.69S

$$




USA.gov is the U.S. government's official web portal to all federal, state and local government web resources and services.